Home   Weather   Thunder Bay   Past weeks

Flag for Canada Past Weather in Thunder Bay, Ontario, Canada — Yesterday and Last 2 Weeks

Now
23 °F

Broken clouds.


Feels Like: 10 °F
Forecast: N/A
Wind: 16 mph from Northwest

Location: Thunder Bay

Current Time: Feb 26, 2017 at 4:30:57 pm

Latest Report: Feb 26, 2017 at 3:00 pm


Visibility: 20 mi

Pressure: 29.71 "Hg

Humidity: 50%

Dew Point: 7 °F

Location of Thunder BayLocation

Past Weather in Thunder Bay — Graph

°F

Thunder Bay Temperature Yesterday

Maximum temperature yesterday: 25 °F (at 4:00 pm)
Minimum temperature yesterday: 10 °F (at 8:00 am)
Average temperature yesterday: 17 °F

High & Low Weather Summary for the Past Weeks

 TemperatureHumidityPressure
High52 °F (Feb 18, 4:00 pm)100% (Feb 12, 1:00 am)30.18 "Hg (Feb 12, 1:00 am)
Low-8 °F (Feb 16, 3:00 am)36% (Feb 25, 5:00 pm)29.34 "Hg (Feb 18, 1:23 am)
Average25 °F75%29.81 "Hg
* Reported Feb 11 3:00 pm — Feb 26 3:00 pm, Thunder Bay, Weather by CustomWeather, © 2017

Note: Actual official high and low records may vary slightly from our data, if they occured in-between our weather recording intervals... More about our weather records

Advertising

Thunder Bay Weather History for the Previous 24 Hours

Scroll right to see more
 ConditionsComfort  
Time TempWeatherWind HumidityBarometerVisibility
3:00 pm
Sun, Feb 26
23 °FBroken clouds.16 mph50%29.71 "Hg20 mi
2:16 pm21 °FPartly sunny.14 mph63%29.70 "Hg20 mi
2:00 pm23 °FLight snow. Mostly cloudy.14 mph63%29.69 "Hg6 mi
1:00 pm23 °FLight snow. Cloudy.10 mph63%29.69 "Hg10 mi
12:00 pm19 °FLight snow. More clouds than sun.10 mph79%29.69 "Hg3 mi
11:00 am21 °FLight snow. Mostly cloudy.9 mph74%29.69 "Hg6 mi
10:42 am21 °FLight snow. Cloudy.12 mph68%29.69 "Hg6 mi
10:00 am19 °FCloudy.9 mph73%29.69 "Hg20 mi
9:00 am14 °FCloudy.5 mph92%29.70 "Hg20 mi
8:00 am10 °FBroken clouds.3 mph92%29.69 "Hg20 mi
7:00 am14 °FPassing clouds.3 mph85%29.69 "Hg15 mi
6:00 am14 °FOvercast.3 mph85%29.70 "Hg15 mi
5:00 am12 °FOvercast.2 mph85%29.70 "Hg15 mi
4:00 am10 °FPassing clouds.2 mph85%29.72 "Hg15 mi
3:00 am9 °FClear.2 mph92%29.73 "Hg15 mi
2:00 am12 °FPassing clouds.2 mph79%29.73 "Hg15 mi
1:00 am16 °FMostly cloudy.No wind73%29.74 "Hg15 mi
12:00 am18 °FOvercast.No wind62%29.75 "Hg15 mi
11:00 pm
Sat, Feb 25
19 °FOvercast.5 mph63%29.76 "Hg15 mi
10:00 pm18 °FPassing clouds.6 mph58%29.77 "Hg15 mi
9:00 pm19 °FClear.7 mph53%29.76 "Hg15 mi
8:00 pm21 °FClear.7 mph49%29.76 "Hg15 mi
7:00 pm23 °FPassing clouds.9 mph46%29.75 "Hg20 mi
6:00 pm25 °FPassing clouds.13 mph39%29.73 "Hg20 mi
5:00 pm25 °FPassing clouds.15 mph36%29.71 "Hg20 mi
4:00 pm25 °FPassing clouds.14 mph39%29.71 "Hg20 mi
Weather by CustomWeather, © 2017

See weather overviewHow to use our weather pages